{"data":{"norad_id":58798,"intl_designator":"2024-012M","name":"STARLINK-31168","alt_names":[],"object_type":"PAYLOAD","status":"ACTIVE","operator":null,"country":"US","launch_date":"2024-01-15","launch_site_code":"AFETR","launch_vehicle":null,"mission":null,"orbit_class":"UNKNOWN","rcs_meters":null,"size_class":null,"mass_kg":null,"dimensions":null,"purposes":["comms"],"wikipedia_slug":null,"has_3d_model":false,"image_url":null,"decayed_at":null,"tle_current":{"epoch":"2026-09-20T09:26:08.104704Z","epoch_age_seconds":161827,"freshness":"FRESH","line1":"1 58798U 24012M   26263.39314936 -.00000467  00000+0 -74710-5 0  9995","line2":"2 58798  43.0019 145.6372 0000820 294.2998  65.7768 15.27578781151015","mean_motion":15.27578781,"eccentricity":8.2e-5,"inclination_deg":43.0019,"raan_deg":145.6372,"arg_perigee_deg":294.2998,"mean_anomaly_deg":65.7768,"bstar":-7.471e-6,"rev_number":15101,"period_min":94.266823938032,"perigee_km":482.49012860743,"apogee_km":483.6153637258,"semimajor_km":6861.1897461666,"source":"CELESTRAK","updated_at":"2026-09-21T09:00:33.980775Z"}}}